CAPE
6 8 11 13 5 19 36 25 23 13 8 47 15 32 1 6 11 0 0 0 0 1 10 0 0 0 0 32 122 233 175 69 53 3 0 0 0 5 8 37 34 0 0 18 1
10 11 18 14 12 11 31 32 26 19 11 10 24 51 3 3 0 0 0 1 68 66 39 4 0 0 3 18 36 75 50 2 0 0 0 0 0 3 329 204 356 2 114 41 2
15 15 21 15 12 9 17 29 30 10 11 18 29 40 1 0 0 0 19 51 54 63 0 0 4 15 10 6 22 18 2 0 34 17 12 0 0 33 309 205 381 11 103 0 1
54 17 17 17 20 9 10 15 30 22 1 44 22 23 0 0 0 0 40 13 30 38 15 4 14 36 31 20 0 41 0 37 43 79 307 127 6 14 399 162 245 174 244 185 28
230 14 13 18 19 11 4 10 18 22 3 30 38 5 0 0 0 0 61 0 65 98 21 13 5 26 22 18 28 86 18 45 104 238 392 152 39 0 40 242 540 474 389 240 33
201 8 7 25 12 15 9 5 32 21 1 8 35 0 0 0 0 0 0 0 2 46 97 53 11 29 0 17 93 30 10 49 173 99 323 151 7 0 2 115 868 386 441 384 206
170 13 8 16 24 15 14 14 14 31 2 4 36 0 0 0 0 0 0 0 0 39 86 53 29 33 32 20 0 40 55 25 86 107 225 62 33 0 0 419 705 608 428 417 360
54 8 9 13 11 17 8 14 16 21 6 4 22 0 0 0 0 0 0 0 0 49 88 61 32 36 17 14 35 46 35 37 29 154 199 14 2 0 0 112 341 204 319 298 352
53 4 6 4 6 12 2 5 0 19 7 8 0 0 0 0 0 0 0 0 0 16 56 42 24 35 32 1 11 12 0 2 1 47 0 4 21 0 0 0 0 0 0 218 319
15 10 3 0 10 4 0 0 0 15 0 0 0 0 0 0 0 0 1 0 18 21 50 39 30 37 4 2 0 13 0 1 3 22 17 0 0 0 0 0 0 0 0 0 0
5 13 3 0 0 0 0 0 0 0 0 0 0 0 0 0 0 3 4 0 10 22 18 32 34 13 1 2 0 0 0 0 18 27 31 3 0 0 0 0 0 0 0 0 0
9 16 7 28 3 2 0 0 0 0 0 0 0 0 0 0 2 22 2 6 5 9 14 23 39 0 17 8 3 0 0 0 9 23 9 1 1 0 0 0 0 0 0 0 0
35 40 17 19 20 2 0 0 0 0 0 0 0 0 0 0 0 14 1 11 15 20 14 16 7 0 2 0 25 0 0 3 2 10 6 0 3 4 0 0 0 0 0 0 0
54 48 22 21 5 0 0 0 0 0 0 0 0 0 0 0 12 36 16 0 4 8 8 8 13 1 0 0 0 1 0 0 4 0 1 0 3 4 1 0 0 0 0 0 0
29 60 28 7 0 0 0 0 0 0 0 0 0 0 0 1 1 25 12 15 7 3 15 13 13 6 0 2 1 0 0 0 3 16 8 2 1 0 0 0 0 0 0 0 0
17 54 37 18 0 0 0 0 0 0 0 0 0 0 0 4 3 0 12 9 9 19 20 17 6 1 0 4 0 0 0 0 0 1 0 0 0 0 0 0 0 0 0 0 0
44 28 38 8 0 0 0 0 0 0 0 0 0 0 0 0 11 5 8 17 26 3 2 5 8 0 9 1 0 0 0 0 0 0 0 0 0 0 0 0 0 0 0 0 0
69 35 27 3 0 0 0 0 0 0 0 0 0 0 0 0 0 4 10 15 0 0 9 0 0 0 0 0 1 0 0 0 0 0 0 0 0 0 0 0 0 0 0 0 0
26 28 24 11 0 0 0 0 0 0 0 0 0 0 0 0 0 2 0 12 3 0 0 6 1 1 0 0 0 0 0 0 0 0 0 0 0 0 0 0 0 0 0 0 0
14 10 23 0 0 0 0 0 0 0 0 0 0 0 0 0 0 0 0 0 0 0 0 0 6 0 0 0 0 0 0 0 0 0 0 0 0 0 0 0 0 0 0 0 0
13 19 10 0 3 5 0 0 0 0 0 0 0 0 0 0 0 0 0 0 0 0 0 0 0 0 0 0 0 0 0 0 0 0 0 0 0 0 0 0 0 0 0 0 0
24 5 1 0 37 1 0 0 0 0 0 0 0 0 0 0 0 0 0 0 0 0 0 0 0 0 0 0 0 0 0 0 0 0 0 0 0 0 0 0 0 0 0 0 0
13 16 2 6 8 2 0 0 0 0 0 0 0 0 0 0 0 0 0 0 0 0 0 0 0 0 0 0 0 0 0 0 0 0 0 0 0 0 0 0 0 0 0 0 0
7 1 20 19 0 0 0 0 0 0 0 0 0 0 0 0 0 0 0 0 0 0 0 0 0 0 0 0 0 0 0 0 0 0 0 0 0 0 0 0 0 0 0 0 0
7 5 10 7 8 0 0 0 0 0 0 0 0 0 0 0 0 0 0 0 0 0 0 0 0 0 0 0 0 0 0 0 0 0 0 0 0 0 0 0 0 0 0 0 0
5 1 0 0 0 0 0 0 0 0 0 0 0 0 0 0 0 0 0 0 0 0 0 0 0 0 0 0 0 0 0 0 0 0 0 0 0 0 0 0 0 0 0 0 0
0 0 0 2 0 0 0 1 1 0 0 0 0 0 0 0 0 0 0 0 0 0 0 0 0 0 0 0 0 0 0 0 0 0 0 0 0 0 0 0 0 0 0 0 0
CIN
-0 -0 -0 -0 -0 -0 -0 -0 -0 -0 -2 -0 -0 -0 -0 -0 -0 -0 -0 -0 -0 -0 -0 -0 -0 -0 -0 -0 -32 -3 -0 -2 -16 -26 -0 -0 -0 -97 -66 -107 -173 -0 -0 -151 -107
-0 -0 -0 -0 -0 -0 -0 -0 -0 -0 -0 -0 -0 -0 -0 -0 -0 -0 -0 -0 -0 -1 -5 -13 -0 -0 -0 -1 -66 -27 -14 -1 -0 -0 -0 -0 -0 -63 -53 -82 -75 -9 -222 -229 -166
-24 -0 -0 -0 -0 -0 -0 -0 -0 -0 -0 -0 -0 -0 -0 -0 -0 -0 -15 -1 -1 -12 -0 -0 -7 -0 -1 -1 -1 -13 -1 -0 -29 -121 -68 -0 -0 -82 -55 -60 -106 -184 -246 -0 -182
-14 -0 -0 -0 -0 -0 -0 -0 -0 -0 -0 -0 -0 -0 -0 -0 -0 -0 -4 -2 -2 -34 -22 -12 -4 -0 -1 -0 -0 -0 -0 -17 -34 -51 -24 -34 -63 -39 -49 -39 -113 -138 -205 -150 -213
-42 -0 -0 -0 -0 -0 -0 -0 -0 -0 -1 -0 -0 -0 -0 -0 -0 -0 -3 -1 -26 -26 -15 -7 -2 -0 -0 -3 -2 -0 -6 -13 -20 -23 -30 -53 -97 -0 -95 -162 -151 -72 -123 -125 -189
-47 -27 -0 -0 -0 -0 -0 -0 -0 -0 -0 -0 -0 -0 -0 -0 -0 -0 -0 -0 -11 -23 -10 -12 -7 -0 -1 -2 -5 -1 -9 -14 -20 -18 -17 -11 -61 -0 -109 -169 -96 -29 -96 -111 -122
-72 -2 -0 -0 -0 -0 -0 -0 -0 -0 -0 -0 -0 -0 -0 -0 -0 -0 -0 -0 -0 -19 -9 -17 -12 -0 -0 -0 -0 -32 -2 -26 -19 -10 -5 -37 -34 -26 -0 -163 -113 -51 -94 -109 -98
-13 -0 -0 -0 -0 -0 -0 -0 -0 -0 -0 -0 -0 -0 -0 -0 -0 -0 -0 -0 -0 -26 -17 -14 -8 -0 -0 -6 -0 -0 -7 -0 -21 -17 -1 -30 -1 -0 -0 -140 -127 -166 -87 -56 -86
-6 -0 -0 -0 -0 -0 -2 -2 -0 -0 -0 -0 -1 -0 -0 -0 -0 -0 -0 -0 -0 -14 -17 -11 -11 -0 -1 -0 -9 -1 -0 -0 -0 -3 -8 -1 -5 -0 -0 -0 -0 -0 -0 -172 -134
-1 -0 -0 -0 -0 -0 -0 -0 -0 -1 -0 -0 -0 -0 -0 -0 -0 -0 -27 -0 -21 -7 -5 -2 -0 -0 -0 -0 -0 -0 -0 -0 -0 -1 -0 -0 -0 -0 -0 -0 -0 -0 -0 -0 -49
-0 -0 -0 -0 -0 -0 -0 -0 -0 -0 -0 -0 -0 -0 -0 -0 -0 -22 -24 -3 -7 -6 -1 -0 -0 -2 -0 -0 -24 -0 -0 -0 -0 -0 -1 -2 -0 -0 -0 -0 -0 -0 -0 -0 -0
-0 -0 -0 -0 -0 -0 -0 -0 -0 -0 -0 -0 -0 -0 -0 -0 -21 -12 -31 -9 -6 -2 -7 -0 -0 -0 -0 -0 -10 -0 -0 -0 -5 -0 -4 -0 -0 -0 -0 -0 -0 -0 -0 -0 -0
-0 -0 -0 -0 -0 -0 -0 -0 -0 -0 -0 -0 -0 -0 -0 -0 -0 -8 -20 -23 -7 -0 -0 -0 -0 -5 -3 -0 -4 -0 -0 -0 -0 -0 -3 -2 -0 -0 -0 -0 -0 -0 -0 -0 -0
-0 -0 -0 -0 -1 -0 -0 -0 -0 -0 -0 -0 -0 -0 -0 -0 -3 -8 -7 -0 -1 -0 -0 -0 -1 -0 -0 -0 -0 -6 -0 -0 -0 -0 -0 -1 -0 -0 -3 -0 -0 -0 -0 -0 -0
-0 -0 -0 -2 -0 -0 -0 -0 -0 -0 -0 -0 -0 -0 -0 -1 -8 -0 -2 -0 -0 -0 -0 -0 -0 -5 -0 -0 -0 -0 -0 -0 -31 -12 -16 -0 -0 -0 -0 -0 -0 -0 -0 -0 -0
-0 -9 -0 -0 -0 -0 -0 -0 -0 -0 -0 -0 -0 -0 -0 -0 -0 -0 -0 -2 -1 -2 -2 -0 -14 -4 -0 -0 -0 -0 -0 -18 -2 -5 -0 -0 -0 -0 -0 -0 -0 -0 -0 -0 -0
-0 -0 -0 -5 -0 -0 -0 -0 -0 -0 -0 -0 -0 -0 -1 -0 -1 -0 -0 -0 -17 -0 -0 -3 -0 -6 -2 -0 -0 -0 -0 -0 -2 -2 -0 -0 -0 -0 -0 -0 -0 -0 -0 -0 -0
-1 -0 -0 -10 -0 -0 -0 -0 -0 -0 -0 -0 -0 -0 -0 -0 -0 -7 -2 -0 -3 -0 -2 -0 -0 -1 -1 -0 -0 -0 -0 -0 -0 -0 -0 -0 -0 -0 -0 -0 -0 -0 -0 -0 -0
-0 -0 -0 -11 -0 -0 -0 -0 -0 -0 -0 -0 -0 -0 -0 -0 -0 -0 -0 -0 -3 -0 -0 -4 -0 -0 -0 -0 -0 -0 -0 -0 -0 -0 -0 -0 -0 -0 -0 -0 -0 -0 -0 -0 -0
-1 -1 -0 -1 -0 -0 -0 -0 -0 -0 -0 -0 -0 -0 -0 -0 -0 -0 -0 -0 -0 -0 -0 -0 -2 -0 -0 -0 -0 -0 -0 -0 -0 -0 -0 -0 -0 -0 -0 -0 -0 -0 -0 -0 -0
-3 -0 -2 -0 -21 -5 -0 -0 -0 -0 -0 -0 -0 -0 -0 -0 -0 -0 -0 -0 -0 -0 -0 -0 -0 -0 -0 -0 -0 -0 -0 -0 -0 -0 -0 -0 -0 -0 -0 -0 -0 -0 -0 -0 -0
-2 -0 -0 -0 -0 -1 -0 -0 -0 -0 -0 -0 -0 -0 -0 -0 -0 -0 -0 -0 -0 -0 -0 -0 -0 -0 -0 -0 -0 -0 -0 -0 -0 -0 -0 -0 -0 -0 -0 -0 -0 -0 -0 -0 -0
-0 -0 -2 -8 -0 -0 -0 -0 -0 -0 -0 -0 -0 -0 -0 -0 -0 -0 -0 -0 -0 -0 -0 -0 -0 -0 -0 -0 -0 -0 -0 -0 -0 -0 -0 -0 -0 -0 -0 -0 -0 -0 -0 -0 -0
-0 -0 -0 -0 -0 -0 -0 -0 -0 -0 -0 -0 -0 -0 -0 -0 -0 -0 -0 -0 -0 -0 -0 -0 -0 -0 -0 -0 -0 -0 -0 -0 -0 -0 -0 -0 -0 -0 -0 -0 -0 -0 -0 -0 -0
-0 -0 -0 -1 -0 -0 -0 -0 -0 -0 -0 -0 -0 -0 -0 -0 -0 -0 -0 -0 -0 -0 -0 -0 -0 -0 -0 -0 -0 -0 -0 -0 -0 -0 -0 -0 -0 -0 -0 -0 -0 -0 -0 -0 -0
-0 -0 -0 -0 -0 -0 -0 -0 -0 -0 -0 -0 -0 -0 -0 -0 -0 -0 -0 -0 -0 -0 -0 -0 -0 -0 -0 -0 -0 -0 -0 -0 -0 -0 -0 -0 -0 -0 -0 -0 -0 -0 -0 -0 -0
-0 -0 -0 -2 -0 -0 -0 -28 -7 -0 -0 -0 -0 -0 -0 -0 -0 -0 -0 -0 -0 -0 -0 -0 -0 -0 -0 -0 -0 -0 -0 -0 -0 -0 -0 -0 -0 -0 -0 -0 -0 -0 -0 -0 -0
Wind_Speed
15 13 15 13 12 12 12 11 11 12 15 13 11 11 10 12 13 3 6 9 6 12 9 1 1 2 3 5 5 2 7 14 16 9 11 8 9 2 2 9 6 19 12 7 16
16 15 15 13 12 11 11 11 11 13 14 14 9 10 9 12 5 7 9 9 10 8 3 6 5 3 3 3 5 8 11 21 13 8 9 10 6 8 5 10 3 19 8 18 9
18 15 14 12 10 10 10 11 12 11 13 12 8 9 9 8 4 6 4 4 3 3 3 3 2 3 7 5 7 7 18 14 6 10 5 11 7 5 9 16 8 28 15 17 18
20 16 12 10 12 11 11 11 11 11 11 9 7 8 10 2 5 2 5 4 3 4 2 3 3 4 5 13 14 12 16 12 9 10 3 4 3 9 7 5 8 19 20 15 19
20 14 11 11 12 11 10 9 9 8 10 9 8 5 3 2 8 5 8 4 3 5 4 3 4 8 13 5 14 14 11 21 12 11 6 3 8 14 7 3 10 12 19 19 19
19 14 11 10 8 11 10 9 10 7 7 8 7 4 1 5 4 6 3 4 4 4 4 5 7 8 7 10 15 7 16 20 10 13 6 6 2 3 7 2 11 24 20 15 10
27 15 10 6 9 11 9 9 8 10 7 6 5 3 1 12 2 4 4 3 2 2 3 5 4 5 4 12 12 16 18 5 9 13 8 7 5 9 6 7 5 16 16 14 11
32 12 9 7 10 10 8 9 8 11 7 4 1 3 6 5 2 3 3 5 5 4 4 5 3 11 6 2 12 19 6 6 6 12 3 7 12 5 5 3 3 3 8 14 13
31 13 12 8 8 6 6 6 8 13 6 2 3 4 8 7 1 2 2 3 4 4 3 3 2 6 4 3 5 7 6 5 5 6 7 4 7 2 4 3 5 2 3 6 7
27 12 12 8 7 6 4 8 5 5 2 3 2 3 5 3 2 3 3 3 3 3 3 3 3 4 3 3 4 11 8 3 4 11 4 3 1 2 6 0 2 1 3 3 7
24 14 11 11 7 5 2 2 4 4 3 7 5 3 4 2 2 2 2 2 1 2 2 1 5 2 1 11 3 13 7 8 5 10 8 5 2 7 5 4 1 2 2 4 2
29 13 11 9 9 7 6 4 4 5 3 6 4 5 5 2 3 2 2 1 2 3 2 3 3 2 7 9 11 12 11 4 5 1 5 8 2 10 10 5 1 3 4 6 4
27 14 13 10 6 4 5 6 1 4 4 2 4 3 3 5 2 2 1 1 1 2 2 2 3 3 2 3 9 6 10 8 2 6 9 2 3 4 9 5 2 4 4 2 6
31 17 16 12 4 3 4 5 4 3 7 3 2 3 3 1 2 2 3 2 2 2 1 4 4 6 4 4 1 3 9 14 13 3 3 2 2 5 6 9 3 4 3 6 4
31 22 20 17 6 4 4 7 5 2 5 3 2 1 2 1 2 2 4 6 2 2 4 3 4 3 7 3 6 3 12 12 8 5 5 3 3 4 6 7 7 4 8 7 5
31 19 22 8 1 3 6 6 5 8 5 2 1 3 2 2 1 2 1 1 2 3 1 5 3 4 2 7 12 6 12 9 5 2 2 4 4 3 1 1 2 4 5 6 4
37 23 17 7 4 6 5 4 4 7 3 2 3 4 2 2 1 3 1 5 2 3 2 4 3 4 1 4 6 12 5 3 2 1 3 5 2 4 5 6 2 3 6 6 7
15 22 11 4 4 9 3 5 4 4 5 1 3 3 2 1 4 6 2 1 1 2 2 4 5 2 2 2 5 3 3 4 4 3 3 4 3 4 5 5 4 5 7 9 9
25 7 6 4 5 4 5 1 7 7 6 7 4 3 2 1 2 1 3 2 3 4 3 3 4 2 3 3 3 4 4 1 6 2 5 2 3 4 6 8 8 9 14 10 9
7 6 5 6 5 4 3 5 4 5 4 3 4 3 3 2 1 1 1 2 2 2 4 5 7 6 4 3 5 1 1 4 4 4 4 3 2 1 5 5 5 9 9 8 8
8 5 4 4 3 2 4 6 5 3 2 3 4 4 1 1 1 2 2 3 2 2 3 3 4 3 3 4 2 4 4 5 4 4 4 3 1 3 1 2 5 7 7 8 8
3 4 4 3 4 2 4 5 5 4 1 3 3 3 4 3 2 2 3 3 5 1 3 1 6 5 2 1 3 1 2 2 5 2 3 3 3 6 3 4 6 6 7 6 7
3 3 2 2 3 4 5 4 4 4 2 4 3 2 2 3 3 1 2 3 5 3 2 3 2 4 8 6 3 2 1 4 4 4 0 5 4 3 3 5 6 7 7 7 8
3 4 2 2 1 3 4 4 5 2 4 3 3 3 2 2 3 3 2 4 5 4 8 5 4 4 7 4 4 3 3 2 4 4 5 4 5 4 3 5 5 5 6 6 6
2 2 1 6 5 3 2 4 7 5 3 2 3 1 4 3 3 4 2 2 3 7 3 4 4 3 4 3 2 3 3 4 3 4 4 6 8 10 7 5 4 3 4 6 6
2 1 2 2 4 3 2 4 6 4 4 1 4 1 3 5 2 4 4 2 1 5 3 4 1 2 5 6 5 2 2 3 2 4 5 6 2 3 4 6 5 4 4 5 5
1 1 2 4 2 2 3 3 6 8 4 4 7 5 4 2 2 3 6 5 4 3 2 4 4 3 2 5 4 4 2 1 2 2 4 5 5 7 4 5 5 3 4 5 6
Wind_Direction
266 273 281 286 297 306 290 286 303 312 314 301 295 297 309 313 316 304 248 224 216 268 279 34 283 284 294 254 212 157 236 224 213 197 212 193 199 220 236 150 183 180 181 150 126
253 260 274 286 289 306 290 292 297 306 313 297 291 315 316 319 310 252 244 250 280 306 251 226 252 205 239 229 230 203 220 229 206 215 216 238 202 184 162 168 242 174 95 122 128
251 253 263 273 284 295 297 291 294 301 315 297 295 319 327 336 301 252 236 275 354 99 103 172 265 210 219 203 211 201 230 218 201 197 222 235 305 215 175 191 187 178 157 150 139
248 242 252 265 276 272 289 287 287 293 308 318 304 324 329 117 273 256 256 308 34 127 144 226 229 224 223 217 219 239 229 242 229 215 233 196 252 275 208 188 175 174 160 158 155
283 230 242 248 267 270 286 293 290 277 309 319 316 348 15 269 253 274 271 324 111 149 210 238 239 272 229 217 219 235 240 217 240 187 168 288 215 270 225 160 137 167 163 179 179
298 220 234 247 251 274 279 291 292 274 308 294 310 46 79 267 250 321 275 294 247 210 220 192 247 282 270 240 229 228 231 211 221 214 190 229 173 273 238 219 177 179 174 182 151
318 213 217 228 264 270 274 285 290 283 295 288 313 100 223 243 255 324 3 269 235 225 243 207 250 276 335 206 240 202 214 245 226 222 195 165 234 236 285 212 160 171 178 169 165
327 193 199 207 253 267 277 276 293 281 280 270 356 87 248 256 268 265 311 289 262 258 247 197 206 268 231 7 174 203 175 203 219 206 90 167 217 255 303 178 142 175 169 176 183
324 191 180 215 252 256 282 282 283 280 241 231 97 119 271 311 232 255 224 276 291 264 257 176 83 253 235 78 176 156 164 140 335 182 235 76 163 275 330 149 109 76 130 133 140
335 207 179 203 224 238 253 295 282 263 205 97 117 22 278 271 273 283 249 253 277 268 259 217 282 256 170 58 218 151 115 138 184 178 314 49 265 33 10 223 133 334 5 136 145
323 210 188 186 200 207 68 51 69 257 235 178 177 236 273 279 221 245 280 278 319 237 249 18 261 202 132 259 138 127 130 90 4 149 178 168 313 342 338 323 120 278 312 273 171
323 217 180 213 181 181 118 211 205 261 156 206 222 250 258 181 295 271 143 112 203 257 50 276 290 138 116 311 84 115 120 166 81 11 70 63 348 307 295 255 261 302 272 263 264
320 253 183 181 208 161 174 213 193 238 83 325 191 222 209 190 298 311 185 347 296 248 196 280 293 134 76 359 88 122 122 122 114 42 62 112 82 224 277 228 258 289 250 265 246
323 286 176 168 169 179 201 208 194 242 74 283 263 260 138 17 245 113 44 141 229 260 251 270 199 147 90 64 266 91 139 128 155 128 59 65 359 233 247 255 243 289 292 274 288
310 282 177 168 137 197 182 140 145 14 45 252 249 151 144 245 346 131 186 173 197 223 234 84 167 84 55 59 22 223 149 152 160 119 141 69 83 268 127 267 245 270 225 245 258
304 200 173 156 138 247 135 130 55 45 260 360 215 197 12 321 355 292 312 272 307 242 78 76 48 24 107 257 241 110 84 66 47 39 89 161 189 335 43 344 324 289 187 194 217
294 175 167 140 192 165 128 84 49 121 320 215 206 154 187 287 224 217 257 179 207 111 44 52 28 354 79 328 56 103 69 95 133 70 72 326 69 267 335 360 322 102 80 63 66
279 166 161 182 190 133 89 71 104 169 187 198 193 101 92 346 19 3 0 106 144 203 93 97 359 340 345 166 158 91 157 157 139 119 112 360 46 336 351 18 38 71 91 68 47
147 148 145 201 163 99 85 119 193 184 170 167 90 106 350 356 170 134 350 2 24 44 77 109 91 226 291 315 63 315 47 256 108 96 79 325 39 62 44 38 31 51 62 49 49
134 122 160 147 151 84 97 239 127 142 145 142 124 159 132 229 237 67 17 291 187 229 190 165 98 358 350 18 20 174 204 46 6 103 74 355 142 93 37 27 37 46 53 46 39
104 133 147 137 118 101 206 228 116 142 126 122 150 122 139 194 89 19 25 300 8 4 88 101 81 314 16 10 278 356 12 38 107 78 140 136 114 45 183 193 87 63 52 54 50
107 111 156 127 155 185 220 193 112 136 93 94 104 113 152 180 80 67 110 291 354 348 40 350 108 76 109 309 294 23 36 68 102 291 49 84 343 359 183 113 110 79 59 54 49
86 90 88 43 157 190 244 109 108 126 146 116 126 125 144 142 97 89 51 321 356 61 140 169 44 73 354 4 358 82 324 98 89 56 333 106 245 36 46 78 58 82 52 44 37
112 118 107 256 128 222 133 123 105 99 114 119 116 118 113 63 35 133 92 350 350 25 40 72 69 128 166 182 141 157 176 112 97 94 171 195 164 207 179 116 85 74 72 55 36
32 102 132 179 214 255 75 126 117 120 65 199 74 101 145 97 59 109 102 22 21 353 39 86 95 80 33 42 106 156 180 182 127 154 131 199 168 195 188 159 130 100 61 47 26
95 99 74 281 128 141 299 142 130 89 116 180 127 89 55 115 167 148 124 72 24 355 56 7 120 94 18 5 16 78 26 156 81 112 75 121 137 145 129 113 125 114 76 38 6
78 74 87 159 102 160 183 148 145 119 47 79 137 91 42 37 104 93 84 85 81 72 53 65 124 65 300 351 352 351 226 180 110 58 128 170 199 157 141 155 168 148 65 15 344